Regional Weather Roundup
Issued by NWS

Home | Current Version | Previous Version | Text Only | Print | Product List | Glossary Off
Versions: 1 2 3 4 5 6 7 8 9 10 11 12 13 14 15 16 17 18 19 20 21 22 23 24 25 26 27 28 29 30 31 32 33 34 35 36 37 38 39 40 41 42 43 44 45 46 47 48 49 50

000
ASUS45 KBOU 242107
RWRCO

WEATHER ROUNDUP FOR COLORADO
NATIONAL WEATHER SERVICE DENVER/BOULDER CO
200 PM MST MON NOV 24 2014

NOTE: "FAIR" INDICATES FEW OR NO CLOUDS BELOW 12000 FEET WITH NO
SIGNIFICANT WEATHER AND/OR OBSTRUCTIONS TO VISIBILITY.

COZ001>005-013-030-031-242200-
...NORTHWEST COLORADO...

CITY           SKY/WX    TMP DP  RH WIND       PRES   REMARKS
CRAIG          LGT SNOW  27  20  75 W6        30.17R WCI  20
HAYDEN         PTSUNNY   27  18  69 W8        30.15R WCI  18
MEEKER         CLOUDY    29  22  75 CALM      30.17R
MOUNT WERNER   NOT AVBL
STEAMBOAT SPGS PTSUNNY   27  19  70 W5        30.11R WCI  22
WALDEN         PTSUNNY   23  12  63 NW33G39   30.04R WCI   5
$$

COZ006>008-011-242200-
...WEST CENTRAL VALLEYS...

CITY           SKY/WX    TMP DP  RH WIND       PRES   REMARKS
GRAND JUNCTION MOSUNNY   39  18  42 NW12G20   30.20R
MONTROSE       PTSUNNY   35  16  45 NW18      30.20R WCI  24
EAGLE          PTSUNNY   25  23  93 S6        30.16R WCI  18
RIFLE          LGT SNOW  29  24  82 N5        30.21R WCI  24
DELTA          PTSUNNY   38  22  51 N5        30.20R
NUCLA          PTSUNNY   37  12  35 NW15G21   30.22R
$$

COZ017>023-064>068-242200-
...SOUTHWEST COLORADO...

CITY           SKY/WX    TMP DP  RH WIND       PRES   REMARKS
DURANGO        MOSUNNY   34   3  27 N21       30.08R WCI  22
CORTEZ         MOSUNNY   37  10  32 NW17G28   30.16R
PAGOSA SPRINGS PTSUNNY   31   8  39 E3        30.07R
TELLURIDE      LGT SNOW  20  12  72 N3G16     30.12R
WOLF CREEK PAS CLOUDY     9  -6  52 MISG      30.00R
$$

COZ009-010-012-014-032>034-037-058>063-242200-
...CENTRAL COLORADO...

CITY           SKY/WX    TMP DP  RH WIND       PRES   REMARKS
ASPEN          LGT SNOW  23  15  71 N12G22    30.09R WCI  12
BUENA VISTA    CLOUDY    26  11  52 NW10      30.05R WCI  16
COPPER MTN     CLOUDY    10   3  72 W23       29.95R WCI -10
BERTHOUD PASS  HVY SNOW   1  -4  78 NW31      29.91R VSB<1/4 WCI -24
COTTONWOOD PAS CLOUDY    23  12  63 CALM      30.02R HAZE
GUNNISON       MOSUNNY   23  14  68 SE5       30.12R WCI  17
KREMMLING      CLOUDY    30  12  47 NW9G21    30.08R WCI  22
LEADVILLE      LGT SNOW  12   7  80 NW10      30.00R WCI  -1
MONARCH PASS   CLOUDY     9   3  78 MISG      30.07R
SALIDA         PTSUNNY   33   7  33 W15G24    30.11R WCI  23
SUNLIGHT       CLOUDY   N/A N/A N/A CALM      30.08R
WILKERSON PASS PTSUNNY   14   0  52 NW13G28   29.97R WCI   0
$$

COZ069>075-242200-
...SAN LUIS VALLEY/SANGRE DE CRISTO MOUNTAINS...

CITY           SKY/WX    TMP DP  RH WIND       PRES   REMARKS
ALAMOSA        PTSUNNY   33   2  26 N18G25    30.03R WCI  22
LA VETA PASS   PTSUNNY   23   1  39 SW6       29.97R WCI  16
SAGUACHE       NOT AVBL
$$

COZ035-036-038>040-242200-
...NORTHERN COLORADO FRONT RANGE...

CITY           SKY/WX    TMP DP  RH WIND       PRES   REMARKS
DENVER INTL AP PTSUNNY   39  11  31 N24G35    30.00R
DMNS CITY PARK   N/A     40   4  22 NW16G26   30.01R
AURORA         PTSUNNY   37   7  28 N20G35    30.01R
FRONT RANGE AP NOT AVBL
ERIE MUNI ARPT PTSUNNY   41   6  23 N15G24    30.02R
BOULDER MUN AP PTSUNNY   41  10  28 NW9G21    30.02R
CENTENNIAL     PTSUNNY   40   6  24 NW20G25   29.99R
BROOMFIELD     PTSUNNY   39   9  28 W17G28    30.02R
FORT COLLINS   PTSUNNY   39  12  33 NW29G38   30.05R
LONGMONT       PTSUNNY   48   8  19 NW12G20   30.03R
$$

COZ041-046-047-076>085-087-088-242200-
...PIKES PEAK/PALMER DIVIDE AND SOUTHERN FOOTHILLS...

CITY           SKY/WX    TMP DP  RH WIND       PRES   REMARKS
COLO. SPRINGS  PTSUNNY   38   4  24 N20G28    29.98R
A. F. ACADEMY  PTSUNNY   35   3  26 N18       29.97R WCI  24
ELLICOTT       NOT AVBL
FALCON         NOT AVBL
FORT CARSON    PTSUNNY   38   4  24 N13       29.98R
LIMON          CLOUDY    35  16  45 N16       29.99R WCI  25
MONUMENT HILL  PTSUNNY   32   7  34 NW14G26   29.97R WCI  22
TRINIDAD       MOSUNNY   37  16  42 NW13      30.00R
$$

COZ042>045-048>051-090-091-242200-
...NORTHEAST COLORADO...

CITY           SKY/WX    TMP DP  RH WIND       PRES   REMARKS
GREELEY ARPT   PTSUNNY   39  16  38 N24G30    30.03R
AKRON          CLOUDY    35  23  61 NW30G38   29.99R WCI  22
BURLINGTON     PTSUNNY   45  16  31 N28G35    29.95R
WRAY           PTSUNNY   47  17  30 NW20G32   29.95R
STERLING       CLOUDY    41  28  60 NW25G32   29.99R
HOLYOKE        PTSUNNY   43  23  45 NW20G26   29.96R
FORT MORGAN    CLOUDY    37  20  51 N26G36    30.03R
$$

COZ086-089-092>099-242200-
...SOUTHEAST COLORADO...

CITY           SKY/WX    TMP DP  RH WIND       PRES   REMARKS
PUEBLO         PTSUNNY   45   8  22 N8        29.99R
LA JUNTA       CLOUDY    49  10  20 N14G20    29.98R
LAMAR          PTSUNNY   49  13  23 NW5       29.95S
SPRINGFIELD      N/A     46   7  20 NW18G25   29.97S
$$



USA.gov is the U.S. government's official web portal to all federal, state and local government web resources and services.